This demonstration page uses our WeatherBlox Daily Observations layout. Learn more.

Left ArrowRight Arrow

38.20091, -84.87328

Hourly Observations for January 1, 2016

Temp ( °F °C ) Dew Point ( °F °C ) Humidity (%) Winds ( mph kmh ) Pressure ( in mb ) Visibility ( mi km ) Precip ( " mm )
12:53 am 00:53 Cloudy 30 -1.1 24 -4.4 79 79 WNW 5 7 30.34 1028 10 16 0.00 0.00
1:24 am 01:24 Cloudy 31 -0.6 24 -4.4 76 76 W 7 11 30.36 1028 10 16 0.00 0.00
1:45 am 01:45 Cloudy 30 -1.1 24 -4.4 79 79 W 6 9 30.39 1029 10 16 0.00 0.00
1:53 am 01:53 Cloudy 31 -0.6 24 -4.4 76 76 WNW 5 7 30.34 1028 10 16 0.00 0.00
2:53 am 02:53 Cloudy 30 -1.1 23 -5 75 75 W 5 7 30.34 1027 10 16 0.00 0.00
3:53 am 03:53 Cloudy 31 -0.6 23 -5 72 72 W 3 6 30.33 1027 10 16 0.00 0.00
4:53 am 04:53 Cloudy 31 -0.6 23 -5 72 72 W 6 9 30.34 1027 10 16 0.00 0.00
5:43 am 05:43 Partly Cloudy 30 -1.1 22 -5.6 72 72 W 5 7 30.36 1028 10 16 0.00 0.00
5:53 am 05:53 Clear 29 -1.7 22 -5.6 75 75 W 3 6 30.33 1027 10 16 0.00 0.00
6:53 am 06:53 Clear 29 -1.7 22 -5.6 75 75 W 5 7 30.34 1028 10 16 0.00 0.00
7:53 am 07:53 Clear 28 -2.2 22 -5.6 78 78 SW 6 9 30.35 1028 10 16 0.00 0.00
8:53 am 08:53 Sunny 28 -2.2 23 -5 81 81 SW 8 13 30.35 1028 10 16 0.00 0.00
9:53 am 09:53 Sunny 31 -0.6 24 -4.4 76 76 SW 9 15 30.36 1028 10 16 0.00 0.00
10:53 am 10:53 Mostly Sunny 33 0.6 23 -5 66 66 VRB 7 11 30.35 1028 10 16 0.00 0.00
11:53 am 11:53 Mostly Sunny 36 2.2 24 -4.4 62 62 WSW 9 15 30.33 1027 10 16 0.00 0.00
12:53 pm 12:53 Sunny 38 3.3 23 -5 55 55 SW 12 19 30.29 1026 10 16 0.00 0.00
1:53 pm 13:53 Mostly Sunny 40 4.4 23 -5 51 51 WSW 12 19 30.26 1025 10 16 0.00 0.00
2:53 pm 14:53 Sunny 40 4.4 23 -5 51 51 W 12 19 30.24 1024 10 16 0.00 0.00
3:53 pm 15:53 Sunny 40 4.4 21 -6.1 47 47 W 13 20 30.25 1024 10 16 0.00 0.00
4:53 pm 16:53 Sunny 39 3.9 21 -6.1 48 48 W 12 19 30.25 1025 10 16 0.00 0.00
5:53 pm 17:53 Clear 36 2.2 20 -6.7 52 52 W 6 9 30.26 1025 10 16 0.00 0.00
6:53 pm 18:53 Clear 34 1.1 20 -6.7 56 56 W 6 9 30.27 1025 10 16 0.00 0.00
7:53 pm 19:53 Clear 33 0.6 20 -6.7 58 58 W 7 11 30.29 1026 10 16 0.00 0.00
8:53 pm 20:53 Clear 31 -0.6 21 -6.1 67 67 W 5 7 30.29 1026 10 16 0.00 0.00
9:53 pm 21:53 Clear 29 -1.7 21 -6.1 72 72 Calm 30.31 1026 10 16 0.00 0.00
10:53 pm 22:53 Clear 28 -2.2 21 -6.1 75 75 WSW 5 7 30.31 1027 10 16 0.00 0.00
11:53 pm 23:53 Clear 28 -2.2 21 -6.1 75 75 WSW 5 7 30.31 1026 10 16 0.00 0.00

Powered by AerisWeather